SLV001 EDDF-VHHH

Flight info

Callsign SLV001
Flight time N/A
Altitude 29000
Route SULUS4D SULUS Z650 VEMUT DCT PEPIK DCT NORAH/N0489F310 DCT BUDOP DCT LUGEB DCT UDROS UM859 KARDE UL851 TBN UM11 REBLO M11 MATAL/N0487F330 M11 LUSAL N199 RASAM L88 METKA B476 DARVA/K0895F330 T898 OGOLI N193 SR L163 TISIB L141 ETAVI/K0887F350 L141 KAMUD/K0887S1070 W186 SADAN Y1 OMBON W245 OVRAL B330 MEXAD/K0887S1130 B330 KWE W181 DUDIT A599 POU R473 SIERA
Aircraft MD11/H-SDE1E2E3FGHIJ2J3J4J5M1RWXY/LB1D1

Departure

Time 2026-05-08 06:58
Airport Frankfurt Main Airport (EDDF)

Arrival

Time N/A
Airport Hong Kong International Airport (VHHH)
Time Latitude Longitude Altitude Speed Heading
2026-05-08 06:10 50.03965 8.54383 363 ft 0 kts 70°
2026-05-08 06:37 50.03960 8.54361 362 ft 4 kts 73°
2026-05-08 06:37 50.03953 8.54325 360 ft 4 kts 84°
2026-05-08 06:37 50.03952 8.54293 362 ft 4 kts 99°
2026-05-08 06:37 50.03959 8.54257 361 ft 4 kts 128°
2026-05-08 06:38 50.03975 8.54234 353 ft 2 kts 157°
2026-05-08 06:38 50.03977 8.54233 359 ft 0 kts 157°
2026-05-08 06:42 50.03976 8.54233 353 ft 1 kts 157°
2026-05-08 06:42 50.03966 8.54240 362 ft 2 kts 157°
2026-05-08 06:43 50.03959 8.54245 353 ft 1 kts 157°
2026-05-08 06:43 50.03950 8.54250 361 ft 2 kts 157°
2026-05-08 06:43 50.03949 8.54251 361 ft 0 kts 157°
2026-05-08 06:50 50.03946 8.54253 361 ft 0 kts 157°
2026-05-08 06:50 50.03942 8.54256 353 ft 2 kts 157°
2026-05-08 06:51 50.03916 8.54273 356 ft 6 kts 156°
2026-05-08 06:51 50.03881 8.54292 360 ft 4 kts 164°
2026-05-08 06:51 50.03859 8.54299 355 ft 2 kts 172°
2026-05-08 06:51 50.03836 8.54293 360 ft 5 kts 196°
2026-05-08 06:52 50.03807 8.54252 358 ft 7 kts 237°
2026-05-08 06:52 50.03784 8.54166 356 ft 10 kts 250°
2026-05-08 06:52 50.03759 8.54057 360 ft 10 kts 250°
2026-05-08 06:52 50.03735 8.53956 357 ft 11 kts 249°
2026-05-08 06:53 50.03705 8.53840 357 ft 11 kts 248°
2026-05-08 06:53 50.03684 8.53742 359 ft 8 kts 251°
2026-05-08 06:53 50.03666 8.53666 361 ft 8 kts 248°
2026-05-08 06:53 50.03632 8.53585 358 ft 10 kts 227°
2026-05-08 06:54 50.03576 8.53527 361 ft 9 kts 206°
2026-05-08 06:54 50.03528 8.53493 356 ft 6 kts 204°
2026-05-08 06:54 50.03485 8.53462 361 ft 8 kts 206°
2026-05-08 06:54 50.03443 8.53408 361 ft 9 kts 233°
2026-05-08 06:55 50.03404 8.53342 361 ft 7 kts 209°
2026-05-08 06:55 50.03370 8.53339 353 ft 3 kts 169°
2026-05-08 06:55 50.03350 8.53358 361 ft 4 kts 140°
2026-05-08 06:55 50.03326 8.53403 353 ft 7 kts 128°
2026-05-08 06:56 50.03297 8.53468 353 ft 7 kts 123°
2026-05-08 06:56 50.03283 8.53528 355 ft 6 kts 99°
2026-05-08 06:56 50.03292 8.53602 359 ft 7 kts 68°
2026-05-08 06:56 50.03309 8.53665 359 ft 9 kts 68°
2026-05-08 06:57 50.03405 8.54063 358 ft 76 kts 69°
2026-05-08 06:57 50.03675 8.55189 358 ft 145 kts 69°
2026-05-08 06:57 50.04099 8.56949 361 ft 197 kts 69°
2026-05-08 06:57 50.04607 8.59009 824 ft 202 kts 68°
2026-05-08 06:58 50.05107 8.60989 1764 ft 194 kts 69°
2026-05-08 06:58 50.05591 8.63026 2251 ft 214 kts 70°
2026-05-08 06:58 50.06125 8.65311 2468 ft 242 kts 70°
2026-05-08 06:58 50.06727 8.67876 2904 ft 257 kts 70°
2026-05-08 06:59 50.07350 8.70518 3615 ft 262 kts 70°
2026-05-08 06:59 50.07986 8.73197 4313 ft 267 kts 70°
2026-05-08 06:59 50.08616 8.75957 4768 ft 280 kts 77°
2026-05-08 06:59 50.08776 8.79092 4959 ft 300 kts 92°
2026-05-08 07:00 50.08650 8.82360 5618 ft 306 kts 94°
2026-05-08 07:00 50.08511 8.85690 6312 ft 309 kts 93°
2026-05-08 07:00 50.08408 8.89043 6992 ft 312 kts 91°
2026-05-08 07:00 50.08341 8.92443 7654 ft 316 kts 91°
2026-05-08 07:01 50.08296 8.95837 8299 ft 320 kts 91°
2026-05-08 07:01 50.08266 8.99317 8947 ft 323 kts 90°
2026-05-08 07:01 50.08246 9.02829 9578 ft 327 kts 90°
2026-05-08 07:01 50.08231 9.06398 10131 ft 334 kts 90°
2026-05-08 07:02 50.08218 9.10120 10259 ft 354 kts 90°
2026-05-08 07:02 50.08208 9.13999 10710 ft 361 kts 90°
2026-05-08 07:02 50.08199 9.17933 11288 ft 365 kts 90°
2026-05-08 07:02 50.08188 9.21899 11859 ft 369 kts 90°
2026-05-08 07:03 50.08176 9.25868 12378 ft 373 kts 90°
2026-05-08 07:03 50.08161 9.29923 12920 ft 376 kts 90°
2026-05-08 07:03 50.08146 9.34015 13433 ft 380 kts 90°
2026-05-08 07:03 50.08129 9.38142 13934 ft 383 kts 90°
2026-05-08 07:04 50.08110 9.42306 14406 ft 386 kts 90°
2026-05-08 07:04 50.08090 9.46503 14882 ft 389 kts 90°
2026-05-08 07:04 50.08068 9.50727 15331 ft 392 kts 90°
2026-05-08 07:04 50.08044 9.54985 15772 ft 395 kts 90°
2026-05-08 07:05 50.08019 9.59218 16203 ft 397 kts 90°
2026-05-08 07:05 50.07992 9.63533 16607 ft 400 kts 91°
2026-05-08 07:05 50.07963 9.67880 17033 ft 403 kts 91°
2026-05-08 07:05 50.07933 9.72255 17435 ft 405 kts 91°
2026-05-08 07:06 50.07900 9.76656 17810 ft 408 kts 91°
2026-05-08 07:06 50.07866 9.81082 18199 ft 410 kts 91°
2026-05-08 07:06 50.07830 9.85534 18578 ft 413 kts 91°
2026-05-08 07:06 50.07792 9.90020 18912 ft 415 kts 91°
2026-05-08 07:07 50.07751 9.94526 19264 ft 418 kts 91°
2026-05-08 07:07 50.07710 9.98946 19565 ft 420 kts 91°
2026-05-08 07:07 50.07659 10.03500 19887 ft 422 kts 91°
2026-05-08 07:07 50.07589 10.08085 20178 ft 424 kts 92°
2026-05-08 07:08 50.07518 10.12694 20445 ft 427 kts 91°
2026-05-08 07:08 50.07452 10.17322 20742 ft 429 kts 91°
2026-05-08 07:08 50.07391 10.21965 21028 ft 431 kts 91°
2026-05-08 07:08 50.07366 10.26645 21315 ft 433 kts 90°
2026-05-08 07:09 50.07374 10.31336 21586 ft 435 kts 90°
2026-05-08 07:09 50.07399 10.35997 21868 ft 437 kts 90°
2026-05-08 07:09 50.07429 10.40733 22187 ft 439 kts 90°
2026-05-08 07:09 50.07457 10.45495 22477 ft 441 kts 90°
2026-05-08 07:10 50.07482 10.50279 22773 ft 443 kts 90°
2026-05-08 07:10 50.07504 10.55085 23060 ft 445 kts 90°
2026-05-08 07:10 50.07524 10.59922 23362 ft 448 kts 90°
2026-05-08 07:10 50.07540 10.64771 23671 ft 450 kts 90°
2026-05-08 07:11 50.07539 10.69659 23933 ft 452 kts 92°
2026-05-08 07:11 50.07198 10.74511 24268 ft 452 kts 102°
2026-05-08 07:11 50.06432 10.79196 24549 ft 454 kts 108°
2026-05-08 07:11 50.05450 10.83863 24846 ft 455 kts 110°
2026-05-08 07:12 50.04396 10.88531 25123 ft 458 kts 110°
2026-05-08 07:12 50.03336 10.93210 25437 ft 460 kts 110°
2026-05-08 07:12 50.02291 10.97923 25736 ft 462 kts 109°
2026-05-08 07:12 50.01260 11.02666 26025 ft 464 kts 109°
2026-05-08 07:13 50.00236 11.07441 26309 ft 466 kts 109°
2026-05-08 07:13 49.99216 11.12235 26577 ft 469 kts 109°
2026-05-08 07:13 49.98188 11.17073 26794 ft 473 kts 109°
2026-05-08 07:13 49.97153 11.21937 27053 ft 475 kts 109°
2026-05-08 07:14 49.96126 11.26748 27316 ft 477 kts 109°
2026-05-08 07:14 49.95080 11.31646 27588 ft 479 kts 109°
2026-05-08 07:14 49.94031 11.36572 27822 ft 481 kts 109°
2026-05-08 07:14 49.93004 11.41529 28065 ft 483 kts 108°
2026-05-08 07:15 49.92043 11.46532 28327 ft 485 kts 107°
2026-05-08 07:15 49.91115 11.51578 28559 ft 487 kts 106°
2026-05-08 07:15 49.90198 11.56648 28792 ft 489 kts 106°
2026-05-08 07:15 49.89278 11.61742 28932 ft 493 kts 106°
2026-05-08 07:16 49.87695 11.72126 28970 ft 502 kts 99°
2026-05-08 07:16 49.86727 11.82848 28964 ft 503 kts 97°
2026-05-08 07:17 49.85864 11.93587 28967 ft 503 kts 97°
2026-05-08 07:17 49.84936 12.04329 28967 ft 503 kts 98°
2026-05-08 07:18 49.83971 12.14981 28956 ft 502 kts 98°
2026-05-08 07:18 49.82991 12.25693 28951 ft 503 kts 98°
2026-05-08 07:19 49.82001 12.36411 28952 ft 503 kts 98°
2026-05-08 07:19 49.80721 12.47052 28971 ft 503 kts 105°
2026-05-08 07:20 49.78719 12.57424 28975 ft 503 kts 108°
2026-05-08 07:20 49.76590 12.67664 28967 ft 503 kts 108°
2026-05-08 07:21 49.74491 12.77980 28974 ft 503 kts 108°
2026-05-08 07:21 49.72418 12.88330 28972 ft 504 kts 108°
2026-05-08 07:22 49.70356 12.98600 28982 ft 504 kts 108°
2026-05-08 07:22 49.68281 13.08854 28976 ft 504 kts 108°
2026-05-08 07:23 49.66183 13.19171 28976 ft 503 kts 108°
2026-05-08 07:23 49.64080 13.29463 28975 ft 503 kts 108°
2026-05-08 07:24 49.61967 13.39743 28980 ft 503 kts 108°
2026-05-08 07:24 49.59860 13.49936 28978 ft 502 kts 108°
2026-05-08 07:25 49.57733 13.60179 28979 ft 502 kts 108°
2026-05-08 07:26 49.54480 13.75492 28981 ft 501 kts 109°
2026-05-08 07:26 49.52308 13.85692 28983 ft 502 kts 108°
2026-05-08 07:27 49.50160 13.95829 28982 ft 502 kts 108°
2026-05-08 07:27 49.47996 14.06026 28972 ft 502 kts 108°
2026-05-08 07:28 49.45820 14.16223 28974 ft 502 kts 108°
2026-05-08 07:28 49.43631 14.26424 28979 ft 503 kts 109°
2026-05-08 07:29 49.41431 14.36626 28966 ft 504 kts 109°
2026-05-08 07:29 49.39234 14.46755 28974 ft 504 kts 109°
2026-05-08 07:30 49.37011 14.56971 28961 ft 505 kts 109°
2026-05-08 07:30 49.34774 14.67193 28962 ft 506 kts 109°
2026-05-08 07:31 49.32521 14.77433 28957 ft 507 kts 109°
2026-05-08 07:31 49.30265 14.87602 28970 ft 507 kts 110°
2026-05-08 07:32 49.27945 14.97826 28970 ft 508 kts 110°
2026-05-08 07:32 49.25636 15.08061 28953 ft 509 kts 109°
2026-05-08 07:33 49.23329 15.18323 28960 ft 510 kts 110°
2026-05-08 07:33 49.21020 15.28572 28952 ft 510 kts 110°
2026-05-08 07:34 49.18712 15.38763 28952 ft 511 kts 110°
2026-05-08 07:34 49.16381 15.49010 28952 ft 511 kts 110°
2026-05-08 07:35 49.14034 15.59268 28950 ft 512 kts 110°
2026-05-08 07:35 49.11679 15.69510 28952 ft 512 kts 110°
2026-05-08 07:36 49.09311 15.79759 28950 ft 512 kts 110°
2026-05-08 07:36 49.06950 15.89933 28950 ft 513 kts 110°
2026-05-08 07:37 49.04563 16.00171 28951 ft 513 kts 110°
2026-05-08 07:37 49.02165 16.10321 28950 ft 512 kts 111°
2026-05-08 07:38 48.99719 16.20518 28951 ft 513 kts 111°
2026-05-08 07:38 48.97304 16.30668 28943 ft 513 kts 111°
2026-05-08 07:39 48.94879 16.40867 28942 ft 512 kts 111°
2026-05-08 07:39 48.92449 16.51046 28935 ft 512 kts 111°
2026-05-08 07:40 48.90013 16.61210 28932 ft 512 kts 111°
2026-05-08 07:40 48.87976 16.69668 28932 ft 512 kts 111°
2026-05-08 07:41 48.85120 16.81468 28923 ft 512 kts 111°
2026-05-08 07:41 48.82655 16.91604 28929 ft 512 kts 112°
2026-05-08 07:42 48.80163 17.01723 28940 ft 511 kts 115°
2026-05-08 07:42 48.77501 17.09672 28935 ft 508 kts 123°
2026-05-08 07:43 48.73143 17.20198 28933 ft 507 kts 126°
2026-05-08 07:43 48.69366 17.29221 28931 ft 507 kts 125°
2026-05-08 07:44 48.65643 17.38299 28932 ft 508 kts 124°
2026-05-08 07:44 48.62558 17.45865 28928 ft 508 kts 124°
2026-05-08 07:45 48.58844 17.54949 28923 ft 508 kts 125°
2026-05-08 07:45 48.55122 17.64013 28922 ft 509 kts 125°
2026-05-08 07:46 48.51406 17.73031 28923 ft 509 kts 125°
2026-05-08 07:46 48.47664 17.82083 28924 ft 510 kts 125°
2026-05-08 07:47 48.43903 17.91146 28921 ft 510 kts 125°
2026-05-08 07:47 48.40144 18.00175 28923 ft 509 kts 126°
2026-05-08 07:48 48.36395 18.09146 28922 ft 509 kts 126°
2026-05-08 07:48 48.32593 18.18115 28923 ft 509 kts 126°
2026-05-08 07:49 48.28779 18.27098 28923 ft 510 kts 126°
2026-05-08 07:49 48.24983 18.36077 28923 ft 510 kts 126°
2026-05-08 07:50 48.21187 18.45049 28922 ft 509 kts 126°
2026-05-08 07:50 48.17412 18.53934 28924 ft 508 kts 126°
2026-05-08 07:51 48.13619 18.62840 28923 ft 507 kts 126°
2026-05-08 07:51 48.09817 18.71727 28922 ft 507 kts 126°
2026-05-08 07:52 48.06013 18.80595 28923 ft 506 kts 126°
2026-05-08 07:52 48.02259 18.89317 28923 ft 505 kts 127°
2026-05-08 07:53 47.98450 18.98138 28923 ft 505 kts 127°
2026-05-08 07:53 47.94616 19.06976 28923 ft 509 kts 127°
2026-05-08 07:54 47.90761 19.15837 28923 ft 508 kts 127°
2026-05-08 07:54 47.86882 19.24630 28922 ft 508 kts 128°
2026-05-08 07:55 47.83044 19.33342 28923 ft 507 kts 127°
2026-05-08 07:55 47.79190 19.42118 28922 ft 506 kts 127°
2026-05-08 07:56 47.75336 19.50874 28923 ft 506 kts 128°
2026-05-08 07:56 47.71481 19.59602 28922 ft 505 kts 128°
2026-05-08 07:57 47.67645 19.68258 28923 ft 505 kts 128°
2026-05-08 07:57 47.63632 19.76764 28923 ft 502 kts 132°
2026-05-08 07:58 47.59330 19.84880 28923 ft 501 kts 133°
2026-05-08 07:58 47.54983 19.92941 28923 ft 501 kts 133°
2026-05-08 07:59 47.50688 20.00962 28923 ft 501 kts 133°
2026-05-08 07:59 47.46367 20.09056 28922 ft 501 kts 133°
2026-05-08 08:00 47.42051 20.17119 28923 ft 501 kts 133°
2026-05-08 08:00 47.37718 20.25188 28923 ft 501 kts 133°
2026-05-08 08:01 47.33385 20.33235 28922 ft 502 kts 133°
2026-05-08 08:01 47.29071 20.41233 28924 ft 502 kts 133°
2026-05-08 08:02 47.24721 20.49259 28923 ft 501 kts 133°
2026-05-08 08:02 47.20362 20.57272 28922 ft 501 kts 133°
2026-05-08 08:03 47.16002 20.65273 28923 ft 502 kts 133°
2026-05-08 08:03 47.11619 20.73249 28923 ft 502 kts 134°
2026-05-08 08:04 47.07251 20.81143 28923 ft 502 kts 134°
2026-05-08 08:04 47.02864 20.89099 28923 ft 502 kts 133°
2026-05-08 08:05 46.98475 20.97062 28923 ft 502 kts 133°
2026-05-08 08:05 46.94085 21.05010 28923 ft 502 kts 134°
2026-05-08 08:06 46.89714 21.12891 28923 ft 502 kts 134°
2026-05-08 08:06 46.85307 21.20813 28922 ft 503 kts 134°
2026-05-08 08:07 46.80891 21.28729 28922 ft 503 kts 134°
2026-05-08 08:07 46.76501 21.36576 28923 ft 503 kts 134°
2026-05-08 08:08 46.72095 21.44433 28924 ft 505 kts 134°
2026-05-08 08:08 46.69865 21.48398 29170 ft 505 kts 134°
2026-05-08 08:08 46.67636 21.52357 29468 ft 505 kts 134°
2026-05-08 08:08 46.65476 21.56401 29754 ft 508 kts 129°
2026-05-08 08:09 46.63571 21.60743 30024 ft 511 kts 124°
2026-05-08 08:09 46.61840 21.65270 30259 ft 513 kts 122°
2026-05-08 08:09 46.60189 21.69870 30506 ft 514 kts 121°
2026-05-08 08:09 46.58551 21.74491 30771 ft 513 kts 121°
2026-05-08 08:10 46.56926 21.79033 30884 ft 513 kts 121°
2026-05-08 08:10 46.53574 21.88190 30920 ft 513 kts 122°
2026-05-08 08:11 46.50175 21.97304 30922 ft 514 kts 122°
2026-05-08 08:11 46.46764 22.06414 30919 ft 514 kts 122°
2026-05-08 08:12 46.43348 22.15508 30926 ft 513 kts 122°
2026-05-08 08:12 46.39948 22.24527 30922 ft 513 kts 122°
2026-05-08 08:13 46.36521 22.33591 30926 ft 513 kts 122°
2026-05-08 08:13 46.33087 22.42645 30922 ft 513 kts 123°
2026-05-08 08:14 46.29646 22.51689 30921 ft 512 kts 123°
2026-05-08 08:14 46.26226 22.60640 30924 ft 512 kts 123°
2026-05-08 08:15 46.22882 22.69272 30922 ft 511 kts 123°
2026-05-08 08:15 46.19406 22.78238 30923 ft 511 kts 123°
2026-05-08 08:16 46.15948 22.87186 30922 ft 510 kts 123°
2026-05-08 08:16 46.12521 22.96049 30922 ft 510 kts 123°
2026-05-08 08:17 46.09063 23.04962 30924 ft 509 kts 123°
2026-05-08 08:17 46.05597 23.13862 30923 ft 509 kts 123°
2026-05-08 08:18 46.02131 23.22737 30921 ft 509 kts 123°